Location: Elkol
(41.7238°N, 110.6124°W)
Time: 17:38:44
(UTC+00:00)

Envisat - Pass Details

Date: 24 January 2022
Orbit: 764 x 765 km, 98.2° (Epoch: 18 May)

Event Time Altitude Azimuth Distance (km) Brightness Sun altitude
Rises 13:53:12 0° 353° (N) 3,239 6.0 -9.3°
Reaches altitude 10° 13:56:41 10° 328° (NNW) 2,308 5.0 -8.6°
Maximum altitude 13:59:04 13° 300° (WNW) 2,071 4.6 -8.2°
Drops below altitude 10° 14:01:26 10° 272° (W) 2,302 4.9 -7.8°
Sets 14:04:55 0° 247° (WSW) 3,223 5.8 -7.2°
